[[{"header":{"parameterUnit":"m.s-1","parameterCategory":1,"la1":30.2991,"la2":30.254,"lo1":-89.0895,"lo2":-89.0444,"dy":0.0017,"dx":0.0017,"nx":28,"ny":28,"refTime":"2024-08-06T21:00:00:Z","depth":0,"parameterNumber":2,"parameterNumberName":"U-component_of_WINDS"},"data":[0,0,0,0,0,0,0,0,0,0,0,0,0,0,0,0,0,0,0,0,0,0,0,0,0,0,0,0,0,0,0,0,0,0,0,0,0,0,0,0,0,0,0,0,0,0,0,0,0,0,0,0,0,0,0,0,0,0,2.5001,2.5002,0,2.5066,2.5066,2.5067,2.5014,2.5012,2.5009,2.5007,2.5075,2.5079,2.5083,0,0,0,0,0,0,0,0,0,0,0,0,0,2.4838,2.4841,2.5001,2.5002,2.5003,2.5066,2.5066,2.5067,2.5014,2.5012,2.5009,2.5006,2.5074,2.5079,2.5083,0,0,0,0,0,0,0,0,0,0,0,0,0,2.4906,2.4842,2.5001,2.4984,2.4983,2.5065,2.5066,2.5068,2.5015,2.5011,2.5008,2.5005,2.5073,2.5078,2.5084,2.5187,0,0,2.5102,2.5104,0,0,0,0,0,0,0,0,2.4902,2.4912,2.4986,2.4985,2.4984,2.5028,2.5034,2.5108,2.5016,2.5003,2.5007,2.5003,2.5063,2.5069,2.5089,2.5191,2.5193,2.5102,2.5106,2.5109,2.511,0,0,0,0,0,0,0,2.4898,2.4909,2.5027,2.4987,2.4986,2.4975,2.4981,2.5047,2.5051,2.5004,2.5,2.5008,2.5062,2.5083,2.509,2.5194,2.5102,2.5107,2.5111,2.5113,2.539,2.5393,0,0,0,0,0,0,2.4894,2.4905,2.5025,2.5029,2.4934,2.498,2.4987,2.5018,2.505,2.5052,2.5011,2.5006,2.5075,2.5083,2.5092,2.5218,2.5108,2.5114,2.5117,2.5386,2.5391,2.5395,0,0,0,0,0,0,2.4891,2.4905,2.5022,2.4966,2.498,2.4987,2.5022,2.5021,2.5042,2.5055,2.5056,2.5032,2.5072,2.5084,2.5165,2.522,2.5117,2.5122,2.5381,2.5387,2.5393,2.547,0,0,0,0,0,0,2.4886,2.4904,2.4942,2.4967,2.4983,2.5093,2.5025,2.5024,2.5052,2.5045,2.5075,2.5077,2.5071,2.5157,2.5171,2.5226,2.5126,2.5377,2.5384,2.5391,2.5463,2.5478,2.5491,0,0,0,0,0,2.4881,2.4961,2.4944,2.4959,2.5031,2.5096,2.5105,2.5095,2.5056,2.5096,2.5105,2.5076,2.5211,2.5165,2.5181,2.5239,2.5373,2.5382,2.539,2.5456,2.5475,2.549,0,0,0,0,0,0,2.4942,2.4964,2.4946,2.5036,2.5065,2.5087,2.5136,2.5115,2.5155,2.5147,2.5134,2.5142,2.5228,2.5241,2.519,2.5343,2.5286,2.5298,2.5331,2.5349,2.5363,2.5358,2.5131,0,0,0,0,0,2.4966,2.5016,2.5032,2.5111,2.5126,2.5129,2.5157,2.5147,2.5177,2.5188,2.5203,2.5234,2.5284,2.5317,2.5363,2.5464,2.5472,2.5512,2.5526,2.5538,2.5549,2.5608,2.5627,2.5423,2.5423,2.5423,0,0,2.5016,2.5034,2.5066,2.5124,2.5145,2.5199,2.5139,2.5198,2.5239,2.5197,2.5276,2.5289,2.5322,2.5415,2.5457,2.5429,2.5607,2.5549,2.5558,2.5563,2.5619,2.5638,2.5655,2.5429,2.5428,2.5427,0,0,2.5135,2.5153,2.5222,2.5245,2.5277,2.5279,2.5296,2.5323,2.533,2.5408,2.5379,2.5429,2.5513,2.554,2.5564,2.5698,2.5675,2.5714,2.5788,2.5845,2.5861,2.5876,2.5927,2.5945,2.5725,2.5725,2.5725,0,2.5193,2.5272,2.526,2.5322,2.535,2.5316,2.5388,2.541,2.5457,2.5478,2.5446,2.5555,2.5574,2.5675,2.5709,2.5728,2.575,2.5711,2.586,2.5874,2.5887,2.5936,2.5955,2.573,2.5729,2.5729,2.5728,0,2.5344,2.54,2.5452,2.5499,2.5533,2.5599,2.5599,2.5635,2.5624,2.563,2.5713,2.5736,2.5788,2.5811,2.58,2.5912,2.5894,2.5861,2.5804,2.5912,2.5958,2.5976,2.5736,2.5735,2.5733,2.5732,0,0,2.5502,2.5544,2.5564,2.5586,2.5622,2.5666,2.5733,2.5784,2.5817,2.5851,2.5909,2.5983,2.5954,2.5982,2.5974,2.6024,2.6134,2.5986,2.5987,2.6016,2.6264,2.629,2.6312,2.6118,2.6122,2.6125,2.6262,0,2.5626,2.5741,2.5734,2.5843,2.5897,2.5867,2.5926,2.5956,2.5964,2.6012,2.6022,2.6076,2.6032,2.605,2.6098,2.6111,2.6185,2.61,2.6175,2.6178,2.617,2.6335,2.6362,2.6491,2.628,2.6283,2.6285,0,2.5784,2.5825,2.5941,2.5972,2.5994,2.6047,2.6096,2.6141,2.6176,2.6179,2.6213,2.6197,2.6268,2.6209,2.6308,2.6251,2.6281,2.6293,2.6297,2.6306,2.6239,2.6351,2.6531,2.6552,2.6312,2.631,2.6308,0,2.5892,2.5976,2.6057,2.6077,2.6114,2.6153,2.6171,2.6202,2.6235,2.6278,2.63,2.635,2.6379,2.642,2.642,2.6376,2.6522,2.6462,2.6529,2.653,2.6562,2.656,2.6753,2.6578,2.6578,2.6577,2.6577,0,2.6032,2.6104,2.6106,2.6156,2.6238,2.623,2.6312,2.6326,2.6355,2.6409,2.6385,2.6437,2.6433,2.6486,2.6487,2.6571,2.6584,2.659,2.659,2.6594,2.6593,2.6615,2.6607,2.6582,2.6581,2.658,2.6579,0,2.6166,2.617,2.6257,2.6286,2.6296,2.6355,2.6381,2.643,2.6438,2.6507,2.6523,2.6535,2.6597,2.6601,2.6672,2.6673,2.6777,2.6765,2.6765,2.6764,2.6833,2.6827,2.7048,2.7078,2.6881,2.6882,2.6884,0,2.6255,2.6311,2.6347,2.6382,2.6402,2.6458,2.6492,2.6488,2.6524,2.6571,2.6615,2.6675,2.6722,2.6823,2.684,2.6895,2.6887,2.696,2.6895,2.6899,2.6892,2.689,2.6897,2.6973,2.6976,2.6977,2.6979,0,2.6415,2.6416,2.6465,2.6517,2.6558,2.6599,2.6636,2.6666,2.6667,2.671,2.6773,2.681,2.6885,2.6946,2.7001,2.7021,2.7002,2.6999,2.7019,2.7024,2.7023,2.7028,2.6803,2.6994,2.6993,2.6992,2.6991,2.699,2.6532,2.6581,2.6616,2.6673,2.6702,2.6738,2.6787,2.6802,2.6854,2.6914,2.6909,2.698,2.7018,2.709,2.7115,2.7172,2.7147,2.7174,2.7182,2.7189,2.7198,2.7012,2.7182,2.7181,2.7181,2.7181,2.718,0,2.6693,2.6715,2.6767,2.6822,2.6868,2.6845,2.6887,2.6928,2.6991,2.7027,2.7075,2.715,2.721,2.7233,2.7292,2.7334,2.7328,2.7351,2.7348,2.7355,2.7215,2.7194,2.7355,2.7355,2.7355,2.7355,2.7355,2.7355,2.6783,2.6867,2.6872,2.6971,2.6992,2.7062,2.7088,2.7124,2.7153,2.7238,2.7288,2.7302,2.7335,2.7397,2.7452,2.7458,2.7482,2.751,2.7512,2.7381,2.7364,2.7347,2.7327,2.7514,2.7515,2.7647,2.7648,2.7649]},{"header":{"parameterUnit":"m.s-1","parameterCategory":1,"la1":30.2991,"la2":30.254,"lo1":-89.0895,"lo2":-89.0444,"dy":0.0017,"dx":0.0017,"nx":28,"ny":28,"refTime":"2024-08-06T21:00:00:Z","depth":0,"parameterNumber":3,"parameterNumberName":"V-component_of_WINDS"},"data":[0,0,0,0,0,0,0,0,0,0,0,0,0,0,0,0,0,0,0,0,0,0,0,0,0,0,0,0,0,0,0,0,0,0,0,0,0,0,0,0,0,0,0,0,0,0,0,0,0,0,0,0,0,0,0,0,0,0,-0.8878,-0.8878,0,-0.8882,-0.8882,-0.8882,-0.8909,-0.891,-0.8911,-0.8912,-0.8912,-0.8912,-0.8911,0,0,0,0,0,0,0,0,0,0,0,0,0,-0.8892,-0.8892,-0.8878,-0.8878,-0.8878,-0.8882,-0.8882,-0.8882,-0.8909,-0.891,-0.8911,-0.8912,-0.8913,-0.8912,-0.8911,0,0,0,0,0,0,0,0,0,0,0,0,0,-0.889,-0.8892,-0.8878,-0.8892,-0.8894,-0.8882,-0.8882,-0.8882,-0.8909,-0.891,-0.8911,-0.8912,-0.8913,-0.8912,-0.8911,-0.8885,0,0,-0.8908,-0.8908,0,0,0,0,0,0,0,0,-0.889,-0.8889,-0.889,-0.8891,-0.8893,-0.8896,-0.8887,-0.8883,-0.8909,-0.8903,-0.8912,-0.8913,-0.8906,-0.8906,-0.8904,-0.8885,-0.8885,-0.8908,-0.8908,-0.8907,-0.8907,0,0,0,0,0,0,0,-0.889,-0.8889,-0.888,-0.889,-0.8892,-0.8898,-0.8899,-0.8887,-0.8899,-0.8904,-0.8906,-0.8906,-0.8907,-0.8905,-0.8904,-0.8885,-0.8908,-0.8907,-0.8907,-0.8906,-0.8843,-0.8842,0,0,0,0,0,0,-0.8889,-0.8889,-0.8879,-0.888,-0.8894,-0.8897,-0.8898,-0.8894,-0.8899,-0.8901,-0.8905,-0.8907,-0.8906,-0.8905,-0.8904,-0.8873,-0.8907,-0.8906,-0.8906,-0.8844,-0.8843,-0.8842,0,0,0,0,0,0,-0.8889,-0.8888,-0.8879,-0.8885,-0.8885,-0.8895,-0.8891,-0.8894,-0.8892,-0.89,-0.8902,-0.8901,-0.8907,-0.8906,-0.8889,-0.8873,-0.8906,-0.8905,-0.8846,-0.8844,-0.8842,-0.881,0,0,0,0,0,0,-0.8889,-0.8888,-0.8878,-0.8885,-0.8884,-0.8865,-0.889,-0.8893,-0.889,-0.8893,-0.8897,-0.8898,-0.8907,-0.8891,-0.8888,-0.8873,-0.8904,-0.8847,-0.8845,-0.8843,-0.8813,-0.8808,-0.8803,0,0,0,0,0,-0.889,-0.8869,-0.8878,-0.8876,-0.8873,-0.8864,-0.8863,-0.8875,-0.8889,-0.8879,-0.8885,-0.8898,-0.8876,-0.8889,-0.8887,-0.887,-0.8848,-0.8845,-0.8843,-0.8815,-0.8809,-0.8803,0,0,0,0,0,0,-0.8859,-0.887,-0.888,-0.886,-0.8861,-0.8869,-0.8856,-0.8869,-0.8865,-0.8867,-0.8882,-0.8882,-0.8863,-0.8865,-0.888,-0.8845,-0.8864,-0.8861,-0.8843,-0.8838,-0.8833,-0.8832,-0.8904,0,0,0,0,0,-0.885,-0.8843,-0.8852,-0.8834,-0.8834,-0.8845,-0.8842,-0.8851,-0.8852,-0.8852,-0.8856,-0.8856,-0.8849,-0.8844,-0.8838,-0.8814,-0.8814,-0.8801,-0.8797,-0.8793,-0.8789,-0.8775,-0.8769,-0.8833,-0.8833,-0.8833,0,0,-0.8831,-0.8836,-0.8831,-0.8828,-0.883,-0.8821,-0.8845,-0.8835,-0.8828,-0.885,-0.8835,-0.8838,-0.8839,-0.8818,-0.8809,-0.8819,-0.8772,-0.879,-0.8786,-0.8785,-0.8772,-0.8766,-0.8761,-0.8832,-0.8832,-0.8832,0,0,-0.8792,-0.8796,-0.878,-0.8782,-0.8784,-0.8792,-0.8788,-0.8794,-0.8797,-0.8783,-0.8799,-0.8791,-0.8779,-0.8778,-0.8776,-0.8737,-0.8749,-0.8735,-0.8709,-0.8695,-0.869,-0.8686,-0.867,-0.8665,-0.8732,-0.8731,-0.8731,0,-0.8768,-0.8756,-0.8771,-0.8759,-0.8757,-0.8779,-0.8762,-0.8763,-0.8763,-0.876,-0.8772,-0.8757,-0.8759,-0.8738,-0.8728,-0.8727,-0.8722,-0.8733,-0.869,-0.8686,-0.8682,-0.8667,-0.8661,-0.873,-0.873,-0.873,-0.873,0,-0.8725,-0.8717,-0.8704,-0.8704,-0.8701,-0.8687,-0.8699,-0.8694,-0.8704,-0.871,-0.8694,-0.8698,-0.8692,-0.8688,-0.8697,-0.8668,-0.8674,-0.8688,-0.8708,-0.8674,-0.866,-0.8655,-0.8727,-0.8728,-0.8728,-0.8729,0,0,-0.8665,-0.8675,-0.8669,-0.8669,-0.8674,-0.8667,-0.8654,-0.865,-0.8644,-0.8644,-0.8632,-0.8622,-0.8635,-0.8633,-0.8642,-0.863,-0.8597,-0.8645,-0.8646,-0.8635,-0.8563,-0.8552,-0.8545,-0.8606,-0.8605,-0.8604,-0.8563,0,-0.8626,-0.8605,-0.8618,-0.8594,-0.8586,-0.8606,-0.8595,-0.8596,-0.8602,-0.8594,-0.8601,-0.8592,-0.861,-0.8609,-0.8599,-0.8604,-0.8583,-0.8607,-0.8594,-0.8593,-0.8591,-0.8538,-0.8526,-0.8486,-0.8558,-0.8557,-0.8556,0,-0.8577,-0.8575,-0.8551,-0.8557,-0.8554,-0.8543,-0.854,-0.8534,-0.8535,-0.854,-0.8538,-0.855,-0.8537,-0.8558,-0.8539,-0.8555,-0.855,-0.8552,-0.8551,-0.8548,-0.8571,-0.8532,-0.8474,-0.8467,-0.8548,-0.8549,-0.855,0,-0.8533,-0.8525,-0.8509,-0.8509,-0.8516,-0.8508,-0.851,-0.8513,-0.8509,-0.8506,-0.8504,-0.8499,-0.8496,-0.8492,-0.8502,-0.8517,-0.8481,-0.8503,-0.8483,-0.8482,-0.8473,-0.8473,-0.8411,-0.8473,-0.8473,-0.8473,-0.8474,0,-0.8487,-0.8471,-0.8489,-0.8479,-0.8461,-0.8477,-0.8459,-0.8463,-0.8465,-0.8456,-0.8474,-0.8464,-0.8479,-0.8471,-0.8479,-0.8461,-0.846,-0.8462,-0.8464,-0.8459,-0.8459,-0.8455,-0.8457,-0.8472,-0.8472,-0.8472,-0.8473,0,-0.8434,-0.8446,-0.843,-0.8438,-0.844,-0.8426,-0.8433,-0.8423,-0.8431,-0.8418,-0.8416,-0.8427,-0.8418,-0.8429,-0.8421,-0.8426,-0.8401,-0.8408,-0.8401,-0.8402,-0.838,-0.8381,-0.8312,-0.8303,-0.8373,-0.8372,-0.8372,0,-0.8403,-0.8391,-0.8398,-0.8393,-0.8395,-0.8387,-0.8384,-0.8399,-0.8394,-0.8395,-0.8385,-0.8378,-0.8373,-0.8358,-0.8364,-0.8358,-0.8363,-0.834,-0.8362,-0.8357,-0.836,-0.836,-0.8358,-0.8334,-0.8333,-0.8332,-0.8332,0,-0.8345,-0.8352,-0.8347,-0.8343,-0.8339,-0.8337,-0.8336,-0.8331,-0.8347,-0.8341,-0.8332,-0.8329,-0.8321,-0.8312,-0.8308,-0.831,-0.8322,-0.8325,-0.832,-0.8313,-0.8309,-0.8309,-0.8386,-0.8326,-0.8327,-0.8327,-0.8327,-0.8328,-0.83,-0.829,-0.8294,-0.8287,-0.8289,-0.8288,-0.8279,-0.8286,-0.8279,-0.8274,-0.8284,-0.8272,-0.8274,-0.8269,-0.8269,-0.826,-0.827,-0.8263,-0.826,-0.8258,-0.8253,-0.8312,-0.826,-0.826,-0.826,-0.826,-0.826,0,-0.8242,-0.8245,-0.824,-0.8238,-0.8233,-0.8248,-0.8248,-0.8242,-0.8232,-0.8233,-0.8228,-0.8217,-0.821,-0.8216,-0.8209,-0.8201,-0.8206,-0.8198,-0.8198,-0.8197,-0.8246,-0.825,-0.8194,-0.8194,-0.8194,-0.8194,-0.8194,-0.8194,-0.8211,-0.8194,-0.8201,-0.8185,-0.8189,-0.8178,-0.8177,-0.8175,-0.8176,-0.8164,-0.8158,-0.8163,-0.8165,-0.8159,-0.8153,-0.8155,-0.815,-0.814,-0.8143,-0.8188,-0.8194,-0.82,-0.8204,-0.8139,-0.8139,-0.8095,-0.8095,-0.8095]}]]